TimeCDT,TemperatureF,Dew PointF,Humidity,Sea Level PressureIn,VisibilityMPH,Wind Direction,Wind SpeedMPH,Gust SpeedMPH,PrecipitationIn,Events,Conditions,WindDirDegrees,DateUTC
12:54 AM,1.9,-4.0,76,30.17,10.0,Calm,Calm,-,N/A,,Clear,0,2014-03-26 05:54:00
1:54 AM,-0.9,-7.1,75,30.18,10.0,Calm,Calm,-,N/A,,Clear,0,2014-03-26 06:54:00
2:54 AM,-0.9,-7.1,75,30.18,10.0,Calm,Calm,-,N/A,,Clear,0,2014-03-26 07:54:00
3:54 AM,-2.9,-7.1,82,30.18,10.0,Calm,Calm,-,N/A,,Clear,0,2014-03-26 08:54:00
4:54 AM,1.0,-6.0,72,30.18,10.0,Calm,Calm,-,N/A,,Clear,0,2014-03-26 09:54:00
5:54 AM,-0.0,-6.0,76,30.20,10.0,Calm,Calm,-,N/A,,Clear,0,2014-03-26 10:54:00
6:54 AM,-0.0,-6.0,76,30.22,10.0,Calm,Calm,-,N/A,,Clear,0,2014-03-26 11:54:00
7:54 AM,6.1,-0.9,73,30.22,10.0,Calm,Calm,-,N/A,,Clear,0,2014-03-26 12:54:00
8:54 AM,12.9,1.0,59,30.22,10.0,Calm,Calm,-,N/A,,Clear,0,2014-03-26 13:54:00
9:54 AM,18.0,3.0,52,30.21,10.0,Variable,4.6,-,N/A,,Clear,0,2014-03-26 14:54:00
10:54 AM,21.9,5.0,48,30.20,10.0,WSW,9.2,-,0.00,,Clear,250,2014-03-26 15:54:00
11:54 AM,24.1,6.1,46,30.18,10.0,South,11.5,-,0.00,,Clear,180,2014-03-26 16:54:00
12:54 PM,26.1,6.1,43,30.15,10.0,South,8.1,-,0.00,,Clear,170,2014-03-26 17:54:00
1:54 PM,28.0,7.0,41,30.13,10.0,South,12.7,19.6,N/A,,Partly Cloudy,170,2014-03-26 18:54:00
2:54 PM,28.9,7.0,40,30.09,10.0,SSW,9.2,20.7,N/A,,Mostly Cloudy,210,2014-03-26 19:54:00
3:54 PM,30.0,8.1,40,30.07,10.0,South,16.1,19.6,N/A,,Overcast,180,2014-03-26 20:54:00
4:54 PM,28.0,9.0,45,30.05,10.0,SSE,15.0,-,N/A,,Overcast,150,2014-03-26 21:54:00
5:54 PM,26.1,9.0,49,30.04,10.0,SSE,10.4,-,N/A,,Overcast,160,2014-03-26 22:54:00
6:54 PM,25.0,12.0,58,30.02,10.0,SSE,10.4,20.7,N/A,,Overcast,160,2014-03-26 23:54:00
7:54 PM,25.0,12.0,58,30.01,10.0,SSE,12.7,-,N/A,,Overcast,150,2014-03-27 00:54:00
8:54 PM,25.0,12.9,60,30.00,10.0,SSE,13.8,-,N/A,,Overcast,150,2014-03-27 01:54:00
9:54 PM,25.0,16.0,69,29.98,9.0,SSE,9.2,-,0.00,Snow,Light Snow,160,2014-03-27 02:54:00
10:54 PM,25.0,16.0,69,29.96,9.0,SSE,9.2,-,0.00,,Overcast,150,2014-03-27 03:54:00
11:54 PM,25.0,18.0,75,29.94,9.0,SSE,9.2,-,0.00,,Overcast,150,2014-03-27 04:54:00